Regional Weather Roundup
Issued by NWS Wakefield, VA

Home | Current Version | Previous Version | Text Only | Print | Product List | Glossary Off
Versions: 1 2 3 4 5 6 7 8 9 10 11 12 13 14 15 16 17 18 19 20 21 22 23 24 25 26 27 28 29 30 31 32 33 34 35 36 37 38 39 40 41 42 43 44 45 46 47 48 49 50

000
ASUS41 KAKQ 111915
RWRAKQ

REGIONAL WEATHER ROUNDUP
NATIONAL WEATHER SERVICE WAKEFIELD VA
200 PM EST THU FEB 11 2016

Note: "fair" indicates few or no clouds below 12,000 feet with no
significant weather and/or obstructions to visibility. * = Denotes
station may not report precipitation (e.g., rain,snow,etc.),
thunder or fog.

VAZ042-051-052>054-056-112000-
NORTHERN VIRGINIA

CITY           SKY/WX    TMP DP  RH WIND       PRES   REMARKS
WASH NATIONAL  FAIR      28   2  32 NW20G29   30.12F WCI  15
DULLES         FAIR      27   2  34 NW22G32   30.12S WCI  13
FORT BELVOIR   FAIR      30  -1  26 NW22      30.11F WCI  17
QUANTICO       FAIR      33   1  25 N20G30    30.14S WCI  21
FREDERICKSBRG* FAIR      32   4  31 N10G21    30.11S WCI  23
STAFFORD*      FAIR      31  -1  25 W10G20    30.15S WCI  22
WARRENTON      FAIR      32   8  36 W17       30.11S WCI  21
CULPEPER*      FAIR      30   1  29 W12       30.12S WCI  20
MANASSAS*      SUNNY     28   7  40 NW20G29   30.12F WCI  15
LEESBURG*      PTSUNNY   28  10  47 NW18G29   30.13R WCI  16
WINCHESTER     FAIR      27   3  36 W20G28    30.10S WCI  13
FRONT ROYAL*   FAIR      25   0  33 NW10G21   30.10S WCI  15
LURAY*         FAIR      28   1  31 W18       30.09R WCI  16
$$

VAZ048-049-060>072-079>083-112000-
CENTRAL AND SOUTH CENTRAL VIRGINIA

CITY           SKY/WX    TMP DP  RH WIND       PRES   REMARKS
RICHMOND       FAIR      32   3  29 NW15      30.13F WCI  22
CHESTERFIELD*  FAIR      34   1  25 W15G21    30.14F WCI  24
PETERSBURG*    FAIR      35  -6  17 W9G18     30.13F
HANOVER        FAIR      33   3  28 W13G20    30.13F WCI  24
TAPPAHANNOCK*  FAIR      33   4  29 W13G20    30.12F WCI  23
QUINTON*       FAIR      32   3  29 W14       30.12F WCI  22
CHARLOTTSVILLE FAIR      30  -3  24 VRB6G22   30.10F
GORDONSVILLE*  FAIR      31  -1  25 W10G21    30.11R WCI  22
ORANGE*        FAIR      32   1  27 SW15G21   30.12S WCI  22
LOUISA*        FAIR      34   1  25 W16G22    30.09S WCI  23
BUMPASS*       FAIR      32   0  25 NW9       30.10F
FARMVILLE*     FAIR      34  -2  21 W9        30.12S
CREWE*         FAIR      33   2  26 NW15G22   30.12S WCI  23
FORT PICKETT*  NOT AVBL
CHASE CITY*    FAIR      33  -2  22 W10G16    30.14S
CLARKSVILLE*   FAIR      34   3  27 NW14G21   30.14F WCI  24
SOUTH HILL*    FAIR      34   3  27 W9G21     30.19S
LAWRENCEVILLE* FAIR      35   2  25 W8        30.13S
EMPORIA*       FAIR      34   5  29 W12G20    30.15F
$$

VAZ088>098-112000-
SOUTHEAST VIRGINIA

CITY           SKY/WX    TMP DP  RH WIND       PRES   REMARKS
NORFOLK        FAIR      32   2  27 W10G25    30.12F WCI  24
VIRGINIA BEACH FAIR      39   4  23 NW18      30.11F
NORFOLK NAVAL  FAIR      33   5  30 W17G25    30.13F WCI  22
WEST POINT*    FAIR      32   1  27 W12G18    30.14F WCI  23
SALUDA*        FAIR      31   3  29 W13G22    30.11S WCI  22
NEWPORT NEWS   FAIR      33   5  30 W16G28    30.12F WCI  23
LANGLEY AFB    SUNNY     33   4  30 W16G29    30.11S WCI  22
FORT EUSTIS    FAIR      33   7  33 NW17G24   30.11F WCI  22
WILLIAMSBURG*  FAIR      36   9  32 W18       30.13F
HR EXEC AP*    FAIR      36   7  30 W14G20    30.14S
FRANKLIN*      FAIR      34   3  27 W18       30.14S WCI  23
US460-WAKEFLD  FAIR      34   2  25 NW9G17    30.13F
$$

VAZ020-022-025-037-045-112000-
WEST CENTRAL AND SOUTHWEST VIRGINIA

CITY           SKY/WX    TMP DP  RH WIND       PRES   REMARKS
STAUNTON*      FAIR      31   1  27 NW20      30.10F WCI  18
WAYNESBORO*    FAIR      27  -4  26 W6G17     30.06S
HOT SPRINGS VA FLURRIES  14   1  55 W14G25    29.89S WCI  -1
LYNCHBURG      FAIR      29  -1  27 W14G22    30.13F WCI  18
DANVILLE       FAIR      36   1  22 NW10      30.15F
SOUTH BOSTON*  FAIR      36  -1  20 W14G21    30.15F
MARTINSVILLE   FAIR      33  -2  22 NW5       30.14F
ROANOKE        FAIR      29   1  30 W15G28    30.14F WCI  18
BLACKSBURG     FAIR      26   7  44 W12G17    30.10F WCI  16
DUBLIN*        FAIR      27   4  37 NW14G24   30.09F WCI  16
MARION*        FAIR      25   4  39 NW16G24   30.08F WCI  12
HILLSVILLE*    FAIR      24   1  36 NW17G25   30.02F WCI  11
RICHLANDS*     FAIR      23   2  41 NW8       30.08F
WISE*          FAIR      28   1  31 NW8       30.09F
ABINGDON*      FAIR      32  12  43 NW9       30.11F
$$

MDZ021>025-VAZ099-100-112000-
SOUTHERN MARYLAND AND THE DELMARVA PENINSULA

CITY           SKY/WX    TMP DP  RH WIND       PRES   REMARKS
PATUXENT RIVER MOSUNNY   30   2  30 W20       30.10F WCI  17
BAY BRIDGE APT   N/A     28   5  37 W17G26    30.10S WCI  16
LEONARDTOWN    MOSUNNY   30   1  29 W15G23    30.11S WCI  19
DOVER          MOSUNNY   27   7  44 W20G30    30.04S WCI  13
GEORGETOWN     FLURRIES  26   2  35 NW16G24   30.07F WCI  14
EASTON         NOT AVBL
CAMBRIDGE      SUNNY     28   3  34 NW18G25   30.09S WCI  16
SALISBURY      MOSUNNY   27   4  37 NW21G30   30.07F WCI  13
OCEAN CITY     MOSUNNY   29   4  34 W20G35    30.06F WCI  16
WALLOPS ISLAND PTSUNNY   29   8  41 W20G25    30.09S WCI  16
ACCOMACK*      FAIR      32   5  32 NW18G26   30.09F WCI  20
$$

NCZ012>017-030>032-112000-
NORTH CENTRAL AND EASTERN NORTH CAROLINA

CITY           SKY/WX    TMP DP  RH WIND       PRES   REMARKS
ROANOKE RAPIDS FAIR      36   7  30 NW9       30.15S
RALEIGH        MOSUNNY   38   3  23 W14G20    30.16F
ELIZABETH CITY SUNNY     35   8  32 W13G24    30.13F
AHOSKIE*       SUNNY     34   6  30 NW10      30.14F
EDENTON*       SUNNY     38   7  27 NW10G20   30.14F
CURRITUCK*     SUNNY    N/A N/A N/A W10G16    30.13S
KILL DEVIL HLS SUNNY     35   8  31 W13G20    30.12S
MANTEO         SUNNY     34  10  36 NW14G21   30.14S WCI  25
CAPE HATTERAS  SUNNY     38  14  37 W13G21    30.14F
TARBORO*       FAIR      39   8  28 NW13G22   30.16S
GOLDSBORO      SUNNY     41   7  24 NW12      30.14F
WASHINGTON     SUNNY     37   9  30 NW10      30.15F
GREENVILLE     SUNNY     37   7  28 NW7G17    30.17F
NEW BERN       SUNNY     41   8  25 NW12      30.16F
WILMINGTON     SUNNY     45  14  28 W10       30.18F
$$

VAZ048-112000-
ELSEWHERE

CITY           SKY/WX    TMP DP  RH WIND       PRES   REMARKS
HARRISBURG PA  PTSUNNY   23   7  50 NW25G36   30.04S WCI   7
BALTIMORE      MOSUNNY   26   1  34 W23G33    30.09S WCI  11
ANNAPOLIS      SUNNY     27   5  39 NW13G24   30.10F WCI  16
ANDREWS AFB    FAIR      28   1  31 W18G26    30.09S WCI  15
PHILADELPHIA   PTSUNNY   26  -2  29 W22G32    30.03S WCI  12
HENDERSON NC   SUNNY     37   1  22 W6G18     30.14S
GREENSBORO     MOSUNNY   36   7  29 W15       30.13F
ROCKY MOUNT    SUNNY     37   8  30 W14       30.16F
$$

VAZ100-112000-
MARINE

STATION/POSITION TIME  TEMP    WIND        PRES    WAVE   SWELL
                       AIR SEA DIR/SP/G            HT/PER HT/PER
                 (UTC) (F)     (DEG/KT/KT) (MB)    (FT/S) (FT/S)
BRANDYWINE LGT   1800   24     300/ 26/ 34 1017.3F
CAPE MAY NJ      1800   25 39  300/ 26/ 31 1017.1F
LEWES DE         1800   25 38  300/ 27/ 31 1017.8F
15NM E FENWICK I 1850   27 43              1017.1F   6/ 6
OCEAN-CITY-INLET 1800   27 41  320/ 18/ 25 1017.5F
WACHAPREAGUE VA  1800   30 40  270/  7/ 17 1019.3F
THOMAS POINT MD  1900   26 38  310/ 22/ 25 1019.4F
GOOSES REEF MD   1900   28 38  320/ 17/ 23 1020.1F   2/ 3
COVE POINT MD    1800   26     330/ 13/ 22 1020.0F
SOLOMONS ISLAND  1800   28 40  300/ 10/ 19   N/A
BISHOPS HEAD MD  1800   27 34  280/ 18/ 23 1018.7F
PINEY POINT MD   1800          320/ 19/ 22   N/A
POTOMAC MD       1900   29 39  310/ 19/ 23 1018.4F   2/ 3
CAMBRIDGE MD     1800   26 38  280/ 15/ 22 1018.6F
LEWISETTA VA     1800   27 39  310/ 14/ 18 1019.8F
RAPPAHANNOCK LGT 1800          280/ 15/ 17 1019.8F
STINGRAY PT      1900   30 41  300/ 16/ 21 1019.5F   1/ 2
YORK RVR RNG VA  1800   29     300/ 15/ 20 1019.2F
YORKTOWN VA      1800   29 42  270/ 15/ 20 1019.8F
JAMESTOWN VA     1900   30 42  290/ 17/ 21   N/A     1/ 3
DOMINION TERM VA 1800   30     310/ 18/ 23 1019.9F
KIPTOPEKE VA     1800      40  310/ 16/ 23   N/A
CHES BAY BRIDGE  1800   29 41  250/ 16/ 19 1019.7F
CAPE HENRY VA    1800   29     280/ 17/ 24   N/A
CHESAPEAKE LGHT  1800   30     310/ 23/ 25 1020.5F
WILLOUBY STN VA  1800   29     290/ 19/ 24 1020.8F
CAPE HENRY BUOY  1858      43                N/A     4/ 4
1ST LANDING BUOY 1900      42                N/A     2/ 3
CAPE CHARLES BUO 1856      43                N/A     3/ 3   2/11
OFFSHORE WE BUOY 1851      46                N/A     4/ 5   2/13
64NM E OF VA BCH 1850   31 48  290/ 21/ 25 1018.7S   7/ 6   2/12
DUCK PIER NC     1800   31     280/ 14/ 20 1019.8F
44100 DUCK FRF   1854      46                N/A     3/ 5   2/13
44056 DUCK FRF   1811      44                N/A     2/13   2/13
OREGON INLET NC  1800   32 40  290/ 14/ 19 1020.3F
HATTERAS NC      1800   34 44  270/ 21/ 25 1020.4F
DIAMOND SHLS NC  1850   37 70  300/ 19/ 25 1020.5F   C1F1C2F2C3F3C4F4C5F5C6F6C7F7C8M1C9!


USA.gov is the U.S. government's official web portal to all federal, state and local government web resources and services.